Walhalla, ND

2:22 AM CDT on August 21, 2017 (GMT -0500)
Walhalla

Weather History for K96D - March, 2014

Change the Weather History Date:

Sunday, March 9, 2014

  Actual Average (KGAF) Record (KGAF)
Temperature  
Mean Temperature 32 °F -  
Max Temperature 39 °F 30 °F 58 °F (1977)
Min Temperature 24 °F 13 °F -17 °F (1951)
Degree Days  
Heating Degree Days 34    
Moisture  
Dew Point 31 °F    
Average Humidity 90    
Maximum Humidity 100    
Minimum Humidity 70    
Precipitation  
Precipitation 0.00 in - - ()
Sea Level Pressure  
Sea Level Pressure 29.58 in    
Wind  
Wind Speed 10 mph (WNW)    
Max Wind Speed 16 mph    
Max Gust Speed 23 mph    
Visibility 10 miles    
Events      
Averages and records for this station are not official NWS values.
T = Trace of Precipitation, MM = Missing Value Source: NWS Daily Summary

Daily Weather History Graph

Daily Weather History Graph

Search for Another Location

Airport or City:

Trip Planner

Search our weather history database for the weather conditions in past years. The results will help you decide how hot, cold, wet, or windy it might be!

Date:

Astronomy

Mar. 09, 2014 Rise Set
Actual Time 7:57 AM CDT 7:27 PM CDT
Civil Twilight 7:25 AM CDT 7:59 PM CDT
Nautical Twilight 6:49 AM CDT 8:35 PM CDT
Astronomical Twilight 6:12 AM CDT 9:13 PM CDT
Moon 12:59 PM CDT (3/9) 3:46 AM CDT (3/9)
Length of Visible Light 12h 33m
Length of Day
11h 30m
First Quarter, 61% of the Moon is Illuminated
Mar 9
First Quarter
Mar 16
Full
Mar 23
Last Quarter
Mar 30
New
Apr 7
First Quarter

Hourly Weather History & Observations

Time (CDT) Temp. Windchill Dew Point Humidity Pressure Visibility Wind Dir Wind Speed Gust Speed Precip Events Conditions
12:15 AM 35.6 °F 26.6 °F 33.8 °F 93% 29.71 in 10.0 mi SW 13.8 mph 21.9 mph N/A   Clear
12:35 AM 35.6 °F 26.6 °F 33.8 °F 93% 29.70 in 10.0 mi SW 13.8 mph 19.6 mph N/A   Clear
12:55 AM 35.6 °F 25.9 °F 33.8 °F 93% 29.68 in 10.0 mi SW 16.1 mph 19.6 mph N/A   Clear
1:15 AM 35.6 °F 26.2 °F 33.8 °F 93% 29.66 in 10.0 mi SW 15.0 mph 23.0 mph N/A   Clear
1:35 AM 37.4 °F 29.3 °F 33.8 °F 87% 29.65 in 10.0 mi SW 12.7 mph 20.7 mph N/A   Clear
1:55 AM 35.6 °F 27.1 °F 33.8 °F 93% 29.65 in 10.0 mi SW 12.7 mph 19.6 mph N/A   Clear
3:15 AM 37.4 °F 29.3 °F 35.6 °F 93% 29.64 in 10.0 mi SW 12.7 mph 21.9 mph N/A   Clear
3:35 AM 37.4 °F 30.8 °F 35.6 °F 93% 29.62 in 10.0 mi SW 9.2 mph 19.6 mph N/A   Clear
3:55 AM 37.4 °F 29.3 °F 35.6 °F 93% 29.61 in 10.0 mi WSW 12.7 mph 19.6 mph N/A   Clear
4:15 AM 37.4 °F 29.3 °F 35.6 °F 93% 29.60 in 10.0 mi West 12.7 mph 18.4 mph N/A   Clear
4:35 AM 39.2 °F 31.6 °F 35.6 °F 87% 29.59 in 10.0 mi West 12.7 mph 18.4 mph N/A   Clear
4:55 AM 37.4 °F 28.9 °F 33.8 °F 87% 29.59 in 10.0 mi West 13.8 mph 18.4 mph N/A   Clear
5:15 AM 37.4 °F 29.8 °F 33.8 °F 87% 29.58 in 10.0 mi WSW 11.5 mph 17.3 mph N/A   Clear
5:35 AM 37.4 °F 30.8 °F 33.8 °F 87% 29.58 in 10.0 mi West 9.2 mph - N/A   Clear
5:55 AM 37.4 °F 30.8 °F 33.8 °F 87% 29.57 in 10.0 mi West 9.2 mph - N/A   Clear
6:15 AM 37.4 °F 32.8 °F 33.8 °F 87% 29.57 in 10.0 mi West 5.8 mph - N/A   Clear
6:35 AM 37.4 °F 29.8 °F 33.8 °F 87% 29.57 in 10.0 mi West 11.5 mph 18.4 mph N/A   Clear
6:55 AM 37.4 °F 29.8 °F 32.0 °F 81% 29.56 in 10.0 mi West 11.5 mph - N/A   Clear
7:15 AM 37.4 °F 28.5 °F 32.0 °F 81% 29.56 in 10.0 mi West 15.0 mph 21.9 mph N/A   Clear
7:35 AM 37.4 °F 29.3 °F 32.0 °F 81% 29.55 in 10.0 mi West 12.7 mph 18.4 mph N/A   Clear
7:55 AM 35.6 °F 28.0 °F 32.0 °F 87% 29.55 in 10.0 mi West 10.4 mph 16.1 mph N/A   Clear
8:15 AM 35.6 °F 31.7 °F 32.0 °F 87% 29.55 in 10.0 mi West 4.6 mph - N/A   Clear
8:35 AM 35.6 °F 30.7 °F 32.0 °F 87% 29.55 in 10.0 mi West 5.8 mph - N/A   Clear
8:55 AM 35.6 °F 31.7 °F 32.0 °F 87% 29.56 in 10.0 mi NW 4.6 mph - N/A   Clear
9:15 AM 37.4 °F 30.8 °F 28.4 °F 70% 29.55 in 10.0 mi WNW 9.2 mph - N/A   Clear
9:35 AM 37.4 °F 30.3 °F 30.2 °F 75% 29.55 in 10.0 mi WNW 10.4 mph - N/A   Clear
9:55 AM 37.4 °F 28.5 °F 28.4 °F 70% 29.54 in 10.0 mi West 15.0 mph 20.7 mph N/A   Clear
10:15 AM 39.2 °F 31.6 °F 30.2 °F 70% 29.56 in 10.0 mi NNW 12.7 mph - N/A   Clear
10:35 AM 37.4 °F 28.5 °F 30.2 °F 75% 29.56 in 10.0 mi NW 15.0 mph - N/A   Clear
10:55 AM 37.4 °F 31.4 °F 32.0 °F 81% 29.56 in 10.0 mi NW 8.1 mph - N/A   Clear
11:15 AM 37.4 °F 30.8 °F 32.0 °F 81% 29.57 in 10.0 mi NW 9.2 mph - N/A   Clear
11:35 AM 37.4 °F 29.8 °F 32.0 °F 81% 29.57 in 10.0 mi NW 11.5 mph - N/A   Clear
11:55 AM 37.4 °F 29.8 °F 32.0 °F 81% 29.59 in 10.0 mi NW 11.5 mph - N/A   Clear
12:15 PM 37.4 °F 29.3 °F 32.0 °F 81% 29.60 in 10.0 mi NW 12.7 mph - N/A   Clear
12:35 PM 37.4 °F 29.8 °F 32.0 °F 81% 29.60 in 10.0 mi NW 11.5 mph - N/A   Clear
12:55 PM 37.4 °F 30.8 °F 32.0 °F 81% 29.59 in 10.0 mi NW 9.2 mph - N/A   Clear
1:15 PM 35.6 °F 29.2 °F 32.0 °F 87% 29.59 in 10.0 mi NNW 8.1 mph - N/A   Clear
1:35 PM 37.4 °F 29.3 °F 32.0 °F 81% 29.59 in 10.0 mi North 12.7 mph - N/A   Clear
1:55 PM 35.6 °F 28.6 °F 32.0 °F 87% 29.59 in 10.0 mi North 9.2 mph - N/A   Clear
2:15 PM 35.6 °F 28.6 °F 32.0 °F 87% 29.60 in 10.0 mi North 9.2 mph - N/A   Clear
2:35 PM 35.6 °F 29.9 °F 32.0 °F 87% 29.59 in 10.0 mi NNW 6.9 mph - N/A   Clear
2:55 PM 35.6 °F 29.9 °F 32.0 °F 87% 29.59 in 10.0 mi NNW 6.9 mph - N/A   Clear
3:15 PM 35.6 °F 31.7 °F 32.0 °F 87% 29.59 in 10.0 mi NNW 4.6 mph - N/A   Clear
3:35 PM 35.6 °F 31.7 °F 32.0 °F 87% 29.58 in 10.0 mi North 4.6 mph - N/A   Clear
3:55 PM 35.6 °F 31.7 °F 32.0 °F 87% 29.58 in 10.0 mi North 4.6 mph - N/A   Clear
4:15 PM 35.6 °F 32.8 °F 32.0 °F 87% 29.57 in 10.0 mi NNE 3.5 mph - N/A   Clear
4:35 PM 35.6 °F 31.7 °F 32.0 °F 87% 29.58 in 10.0 mi North 4.6 mph - N/A   Clear
4:55 PM 35.6 °F 31.7 °F 32.0 °F 87% 29.59 in 10.0 mi North 4.6 mph - N/A   Clear
5:15 PM 35.6 °F 29.9 °F 32.0 °F 87% 29.58 in 10.0 mi NE 6.9 mph - N/A   Clear
5:35 PM 35.6 °F 31.7 °F 30.2 °F 81% 29.59 in 10.0 mi ENE 4.6 mph - N/A   Unknown
5:55 PM 33.8 °F 29.6 °F 30.2 °F 87% 29.58 in 10.0 mi ENE 4.6 mph - N/A   Clear
6:15 PM 32.0 °F 27.5 °F 32.0 °F 100% 29.59 in 10.0 mi ENE 4.6 mph - N/A   Clear
6:35 PM 32.0 °F 27.5 °F 32.0 °F 100% 29.58 in 10.0 mi ENE 4.6 mph - N/A   Clear
6:55 PM 32.0 °F 27.5 °F 32.0 °F 100% 29.57 in 10.0 mi ENE 4.6 mph - N/A   Clear
7:15 PM 32.0 °F 28.7 °F 32.0 °F 100% 29.59 in 10.0 mi NNE 3.5 mph - N/A   Clear
7:35 PM 32.0 °F - 32.0 °F 100% 29.59 in 10.0 mi Calm Calm - N/A   Clear
7:55 PM 32.0 °F 28.7 °F 32.0 °F 100% 29.59 in 10.0 mi East 3.5 mph - N/A   Clear
8:15 PM 30.2 °F 25.4 °F 30.2 °F 100% 29.57 in 10.0 mi East 4.6 mph - N/A   Clear
8:35 PM 30.2 °F - 30.2 °F 100% 29.56 in 10.0 mi Calm Calm - N/A   Clear
8:55 PM 28.4 °F - 28.4 °F 100% 29.57 in 10.0 mi Calm Calm - N/A   Clear
9:15 PM 28.4 °F - 28.4 °F 100% 29.56 in 10.0 mi Calm Calm - N/A   Clear
9:35 PM 28.4 °F 24.6 °F 28.4 °F 100% 29.56 in 10.0 mi South 3.5 mph - N/A   Clear
9:55 PM 28.4 °F - 28.4 °F 100% 29.56 in 10.0 mi Calm Calm - N/A   Clear
10:15 PM 26.6 °F 21.2 °F 26.6 °F 100% 29.55 in 10.0 mi SE 4.6 mph - N/A   Clear
10:35 PM 28.4 °F 23.3 °F 28.4 °F 100% 29.55 in 10.0 mi SE 4.6 mph - N/A   Clear
10:55 PM 26.6 °F 22.6 °F 26.6 °F 100% 29.54 in 10.0 mi ESE 3.5 mph - N/A   Clear
11:15 PM 26.6 °F 22.6 °F 26.6 °F 100% 29.53 in 10.0 mi ESE 3.5 mph - N/A   Clear
11:35 PM 26.6 °F 22.6 °F 26.6 °F 100% 29.52 in 10.0 mi SE 3.5 mph - N/A   Clear
11:55 PM 24.8 °F 17.9 °F 24.8 °F 100% 29.51 in 10.0 mi SSE 5.8 mph - N/A   Clear
12:15 AM 24.8 °F 19.1 °F 24.8 °F 100% 29.50 in 10.0 mi SSE 4.6 mph - N/A   Clear
12:35 AM 24.8 °F 20.5 °F 24.8 °F 100% 29.49 in 10.0 mi South 3.5 mph - N/A   Clear
12:55 AM 30.2 °F 25.4 °F 30.2 °F 100% 29.48 in 10.0 mi West 4.6 mph - N/A   Clear